Location: Costa Valle Imagna
(45.8000°N, 9.5000°E)
Time: 00:56:04
(UTC+00:00)

Cosmos 1743 Rocket - Pass Details

Date: 17 February 2020
Orbit: 605 x 632 km, 82.6° (Epoch: 04 April)

Event Time Altitude Azimuth Distance (km) Brightness Sun altitude
Rises 05:07:20 0° 342° (NNW) 2,874 6.8 -13.7°
Reaches altitude 10° 05:09:42 10° 334° (NNW) 1,964 5.8 -13.3°
Maximum altitude 05:13:37 34° 269° (W) 1,005 4.1 -12.6°
Drops below altitude 10° 05:17:30 10° 205° (SSW) 1,950 5.9 -11.9°
Sets 05:19:51 0° 196° (SSW) 2,851 6.9 -11.5°
